New Braunfels, TX

10:46 AM CDT on May 26, 2017 (GMT -0500)
New Braunfels Municipal

Weather History for KBAZ - June, 2014

Change the Weather History Date:

Friday, June 6, 2014

  Actual Average (KRND) Record (KRND)
Temperature  
Mean Temperature 82 °F -  
Max Temperature 93 °F 88 °F 101 °F (2011)
Min Temperature 73 °F 70 °F 63 °F (2016)
Cooling Degree Days 17    
Growing Degree Days 32 (Base 50)    
Moisture  
Dew Point 70 °F    
Average Humidity 74    
Maximum Humidity 93    
Minimum Humidity 47    
Precipitation  
Precipitation 0.00 in - - ()
Sea Level Pressure  
Sea Level Pressure 29.87 in    
Wind  
Wind Speed 12 mph (South)    
Max Wind Speed 17 mph    
Max Gust Speed 24 mph    
Visibility 10 miles    
Events      
Averages and records for this station are not official NWS values.
T = Trace of Precipitation, MM = Missing Value Source: NWS Daily Summary

Daily Weather History Graph

Daily Weather History Graph

Search for Another Location

Airport or City:

Trip Planner

Search our weather history database for the weather conditions in past years. The results will help you decide how hot, cold, wet, or windy it might be!

Date:

Astronomy

Jun. 06, 2014 Rise Set
Actual Time 6:31 AM CDT 8:30 PM CDT
Civil Twilight 6:04 AM CDT 8:57 PM CDT
Nautical Twilight 5:31 AM CDT 9:30 PM CDT
Astronomical Twilight 4:56 AM CDT 10:05 PM CDT
Moon 2:17 PM CDT (6/6) 1:54 AM CDT (6/6)
Length of Visible Light 14h 53m
Length of Day
13h 59m
First Quarter, 58% of the Moon is Illuminated
Jun 6
First Quarter
Jun 12
Full
Jun 19
Last Quarter
Jun 27
New
Jul 5
First Quarter

Hourly Weather History & Observations

Time (CDT) Temp. Heat Index Dew Point Humidity Pressure Visibility Wind Dir Wind Speed Gust Speed Precip Events Conditions
12:51 AM 73.9 °F - 71.1 °F 91% 29.83 in 10.0 mi South 10.4 mph - N/A   Clear
1:51 AM 73.9 °F - 72.0 °F 93% 29.82 in 10.0 mi South 12.7 mph - N/A   Mostly Cloudy
2:23 AM 73.9 °F - 72.0 °F 93% 29.85 in 10.0 mi South 11.5 mph - N/A   Scattered Clouds
2:51 AM 75.0 °F - 72.0 °F 90% 29.82 in 10.0 mi South 15.0 mph 20.7 mph N/A   Mostly Cloudy
3:51 AM 75.0 °F - 72.0 °F 90% 29.82 in 10.0 mi SSW 12.7 mph - N/A   Overcast
4:20 AM 75.0 °F - 72.0 °F 90% 29.85 in 10.0 mi SSW 11.5 mph - N/A   Mostly Cloudy
4:51 AM 73.9 °F - 71.1 °F 91% 29.83 in 10.0 mi South 9.2 mph - N/A   Mostly Cloudy
5:51 AM 73.9 °F - 71.1 °F 91% 29.85 in 10.0 mi South 9.2 mph - N/A   Mostly Cloudy
6:51 AM 73.9 °F - 71.1 °F 91% 29.86 in 10.0 mi SSW 9.2 mph - N/A   Mostly Cloudy
7:51 AM 73.9 °F - 72.0 °F 93% 29.88 in 10.0 mi South 8.1 mph - N/A   Overcast
8:51 AM 78.1 °F - 72.0 °F 81% 29.91 in 10.0 mi South 13.8 mph - N/A   Mostly Cloudy
8:58 AM 78.1 °F - 71.1 °F 79% 29.94 in 10.0 mi South 12.7 mph - N/A   Overcast
9:27 AM 78.1 °F - 71.1 °F 79% 29.94 in 10.0 mi South 12.7 mph - N/A   Scattered Clouds
9:51 AM 81.0 °F 84.9 °F 71.1 °F 72% 29.91 in 10.0 mi South 15.0 mph - N/A   Scattered Clouds
10:51 AM 86.0 °F 90.7 °F 70.0 °F 59% 29.90 in 10.0 mi South 16.1 mph - N/A   Mostly Cloudy
11:51 AM 86.0 °F 90.1 °F 69.1 °F 57% 29.91 in 10.0 mi South 16.1 mph 24.2 mph N/A   Overcast
12:51 PM 84.9 °F 89.4 °F 70.0 °F 61% 29.92 in 10.0 mi South 11.5 mph - N/A   Mostly Cloudy
1:51 PM 89.1 °F 95.0 °F 71.1 °F 55% 29.91 in 10.0 mi South 13.8 mph 21.9 mph N/A   Mostly Cloudy
2:51 PM 91.0 °F 95.2 °F 68.0 °F 47% 29.88 in 10.0 mi South 17.3 mph 21.9 mph N/A   Scattered Clouds
3:51 PM 91.9 °F 97.4 °F 70.0 °F 48% 29.87 in 10.0 mi SSE 15.0 mph - N/A   Mostly Cloudy
4:51 PM 90.0 °F 95.4 °F 70.0 °F 52% 29.85 in 10.0 mi South 12.7 mph 23.0 mph N/A   Scattered Clouds
5:51 PM 91.0 °F 96.6 °F 70.0 °F 50% 29.84 in 10.0 mi SE 17.3 mph - N/A   Scattered Clouds
6:51 PM 89.1 °F 93.7 °F 69.1 °F 52% 29.83 in 10.0 mi SSE 15.0 mph 23.0 mph N/A   Clear
7:51 PM 84.9 °F 88.2 °F 68.0 °F 57% 29.85 in 10.0 mi SSE 13.8 mph 24.2 mph N/A   Clear
8:51 PM 81.0 °F 83.8 °F 68.0 °F 65% 29.85 in 10.0 mi SSE 11.5 mph - N/A   Clear
9:51 PM 77.0 °F - 68.0 °F 74% 29.85 in 10.0 mi SSE 8.1 mph - N/A   Clear
10:51 PM 75.9 °F - 69.1 °F 79% 29.86 in 10.0 mi SSE 8.1 mph - N/A   Clear
11:51 PM 75.9 °F - 71.1 °F 85% 29.88 in 10.0 mi South 9.2 mph - N/A   Clear